Regional Weather Roundup
Issued by NWS

Current Version | Previous Version | Text Only | Print | Product List | Glossary On
Versions: 1 2 3 4 5 6 7 8 9 10 11 12 13 14 15 16 17 18 19 20 21 22 23 24 25 26 27 28 29 30 31 32 33 34 35 36 37 38 39 40 41 42 43 44 45 46 47 48 49 50
000
ASPQ40 PGUM 232012
RWRPQ
WEATHER ROUNDUP FOR THE MARIANAS AND MICRONESIA
NATIONAL WEATHER SERVICE TIYAN GU
600 AM CHST THU JUL 24 2014

GUZ001>004-232100-
MARIANA ISLANDS-

CITY           SKY/WX    TMP DP  RH WIND       PRES   REMARKS
GUAM AIRPORT   CLEAR     77  75  94 CALM      29.76R
ANDERSEN AFB   HVY RAIN  79  73  83 SE5       29.76R VSB 3/4
ROTA AIRPORT   PTCLDY    79  77  94 NE6       29.76
TINIAN AP      PTCLDY    79  75  89 E5        29.73
SAIPAN AP      CLEAR     81  75  83 E6        29.74F

$$

PMZ161-232100-
REPUBLIC OF PALAU-

CITY           SKY/WX    TMP DP  RH WIND       PRES   REMARKS
KOROR AP       LGT RAIN  81  79  94 W10       29.84R
KOROR WSO      LGT RAIN  77  75  94 N12G23    29.75R

$$

PMZ171>174-232100-
FEDERATED STATES OF MICRONESIA-

CITY           SKY/WX    TMP DP  RH WIND       PRES   REMARKS
YAP AIRPORT    MOCLDY    77  75  94 CALM      29.71S
CHUUK AP       LGT RAIN  81  79  94 S7        29.71R
POHNPEI AP     NOT AVBL
POHNPEI WSO    CLOUDY    77  75  94 SE2       29.81R
KOSRAE AP      NOT AVBL

$$

PMZ181-232100-
REPUBLIC OF THE MARSHALL ISLANDS-

CITY           SKY/WX    TMP DP  RH WIND       PRES   REMARKS
KWAJALEIN AP   MOSUNNY   84  73  70 SE7       29.80R HX  91
MAJURO AP      PTSUNNY   84  77  79 E12       29.78  HX  94
MAJURO WSO     MOSUNNY   84  77  79 NE10      29.78R HX  94

$$




USA.gov is the U.S. government's official web portal to all federal, state and local government web resources and services.